Location: St. Louis
(38.6270°N, 90.1994°W)
Time: 00:08:49
(UTC-06:00)

Vanguard 1 - Pass Details

Date: 04 December 2021
Orbit: 652 x 3830 km, 34.2° (Epoch: 21 January)

Event Time Altitude Azimuth Distance (km) Brightness Sun altitude
Rises 01:06:09 0° 253° (WSW) 7,457 - -67.1°
Reaches altitude 10° 01:10:49 10° 252° (WSW) 6,658 - -66.4°
Maximum altitude 01:34:20 76° 172° (S) 3,761 - -62.5°
Exits shadow 01:41:42 53° 103° (ESE) 3,952 12.9 -61.3°
Drops below altitude 10° 01:53:18 10° 91° (E) 5,569 14.2 -59.2°
Sets 01:56:48 0° 90° (E) 6,250 14.6 -58.6°
